EHI
6 3 2 4 3 2 1 0 0 0 0 0 0 0 0 0 0 0 0 0 0 0 0 0 0 0 0 0 0 0 0 0 0 0 0 0 0 0 0 0 0 0 0
10 5 3 4 3 1 1 0 0 0 0 0 0 0 0 0 0 0 0 0 0 0 0 0 0 0 0 0 0 0 0 0 0 0 0 0 0 0 0 0 0 0 0
12 6 4 5 5 3 2 1 0 0 0 0 0 0 0 0 0 0 0 0 0 0 0 0 0 0 0 0 0 0 0 0 0 0 0 0 0 0 0 0 0 0 0
16 10 8 10 10 7 4 2 1 0 0 0 0 0 0 0 0 0 0 0 0 0 0 0 0 0 0 0 0 0 0 0 0 1 0 0 0 0 0 0 0 0 0
22 17 15 15 13 9 6 4 3 1 0 0 0 0 0 0 0 0 0 0 0 0 0 0 0 0 0 0 0 0 0 0 0 0 0 0 0 0 0 0 0 0 0
20 16 15 15 12 9 8 8 7 4 1 0 0 0 0 0 0 0 0 0 0 0 0 0 0 0 0 0 0 0 0 0 0 0 0 0 0 0 0 0 0 0 0
12 10 8 9 9 8 9 8 7 4 1 0 0 0 0 0 0 0 0 0 0 0 0 0 0 0 0 0 0 0 0 0 0 0 0 1 1 1 0 0 0 0 0
7 6 4 4 5 6 6 5 5 3 1 0 0 0 0 0 0 0 0 0 0 0 0 0 0 0 0 0 0 0 0 0 0 0 1 2 3 2 1 0 0 0 0
4 3 2 2 3 3 3 3 3 3 1 0 0 0 0 0 0 0 1 1 0 0 0 0 0 0 0 0 0 0 0 0 0 0 1 4 6 5 2 0 0 0 0
1 1 1 1 2 2 2 1 1 1 1 1 0 0 0 0 0 0 1 1 0 0 0 0 0 0 0 0 0 0 0 0 0 0 2 6 9 6 2 1 0 0 0
0 0 0 0 1 1 1 0 0 0 0 1 1 2 1 0 0 0 1 1 0 0 0 0 0 0 0 0 0 0 0 0 0 1 6 13 12 6 2 1 0 0 0
0 0 0 0 0 0 0 0 0 0 0 0 1 2 2 0 0 0 0 1 0 0 0 0 0 0 0 0 0 0 0 0 0 3 14 24 17 6 2 1 0 0 0
0 0 0 0 0 0 0 0 0 0 0 0 0 1 1 0 0 0 1 2 1 0 0 0 0 0 0 0 0 0 0 0 1 7 22 32 22 7 2 1 0 0 0
0 0 0 0 0 0 0 0 0 0 0 0 0 0 0 0 0 0 0 1 0 0 0 0 1 0 0 0 0 0 0 0 3 10 25 33 23 8 3 1 0 0 0
0 0 0 0 0 0 0 0 0 0 0 0 0 0 0 0 0 0 0 0 0 0 0 0 0 0 0 0 0 0 0 0 4 10 21 29 23 11 4 2 1 0 0
0 0 0 0 0 0 0 1 0 0 0 0 0 0 0 0 0 0 0 0 0 0 1 1 0 0 0 0 0 0 0 0 2 7 13 19 17 10 5 2 1 0 0
0 0 0 0 0 0 0 0 0 0 0 0 0 0 0 0 0 0 0 0 0 0 1 2 1 0 0 0 0 0 0 0 1 3 7 8 6 4 3 3 2 1 0
0 0 0 0 0 0 0 0 0 0 0 0 1 1 0 0 0 0 1 1 0 0 1 2 1 0 0 0 0 0 0 0 0 1 3 2 1 0 1 2 3 2 1
0 0 0 0 0 0 0 0 0 0 0 0 1 1 0 0 0 0 1 1 0 0 1 1 1 0 0 0 0 0 0 0 0 0 1 1 0 0 0 1 2 2 2
0 0 0 0 0 0 0 0 0 0 0 0 0 0 0 0 0 0 1 1 0 0 1 1 0 0 0 0 0 0 0 0 0 0 0 0 0 0 0 0 1 1 1
0 0 0 0 0 0 0 0 0 0 0 0 0 0 0 0 0 0 0 0 0 0 0 0 0 0 0 0 0 0 0 0 0 0 0 0 0 1 1 1 1 1 1
0 0 0 0 0 0 0 0 0 0 0 0 0 0 0 0 0 0 0 0 0 0 0 0 0 0 0 0 0 0 0 0 0 0 0 0 1 1 1 3 3 3 1
0 0 0 0 0 0 0 0 0 0 0 0 0 0 0 0 0 0 0 0 0 0 0 0 0 0 0 0 0 0 0 0 0 0 0 0 1 0 1 2 3 3 2
0 0 0 0 0 0 0 0 0 0 0 0 0 0 0 0 0 0 0 0 0 0 0 0 0 0 0 0 0 0 0 0 0 0 0 0 1 0 0 1 1 1 2
0 0 0 0 0 0 0 0 0 0 0 0 0 0 0 0 0 0 0 0 0 0 0 0 0 0 0 0 0 0 0 0 0 0 0 0 0 0 0 0 0 0 1
0 0 0 0 0 0 0 0 0 0 0 0 0 0 0 0 0 0 0 0 0 0 0 0 0 0 0 0 0 0 0 0 0 0 0 0 0 0 0 0 0 0 0
Wind_Speed
9 11 10 9 8 7 6 6 5 5 5 4 4 3 3 3 3 4 4 4 5 5 5 5 5 6 6 6 6 7 7 6 5 4 5 6 6 6 7 7 6 7 9
11 12 10 9 7 6 5 5 4 4 3 3 2 2 1 1 2 2 2 3 3 3 4 4 5 5 5 5 6 5 5 4 4 3 1 3 5 6 7 8 9 6 8
11 12 10 8 6 5 4 3 2 2 1 1 1 0 1 1 1 1 1 2 2 2 2 3 3 4 4 4 4 4 4 4 5 5 4 1 4 6 6 7 7 7 7
11 10 10 8 6 4 2 1 1 1 1 1 1 2 2 2 2 2 2 2 2 2 1 1 2 2 3 3 4 4 3 4 6 8 3 2 4 7 6 6 6 6 6
11 11 10 8 6 3 2 0 0 1 2 2 3 4 4 4 4 4 4 4 3 3 2 1 1 1 2 2 2 3 3 5 8 8 2 5 5 6 6 5 5 5 6
11 10 10 9 6 4 3 1 1 2 3 3 4 5 5 6 6 5 5 5 5 4 4 3 2 2 1 1 1 2 4 6 8 4 1 5 5 6 6 5 4 4 5
9 8 8 9 7 5 4 3 2 2 3 4 5 5 6 6 6 6 6 6 6 6 5 4 3 3 3 2 2 2 4 7 6 4 2 5 5 6 5 4 4 4 4
7 6 6 6 5 4 3 3 2 2 3 3 4 5 6 6 7 7 7 7 7 7 6 5 5 5 4 3 3 3 5 7 6 4 3 5 7 6 5 4 4 4 4
5 4 3 2 2 3 2 1 1 2 2 4 4 5 6 7 7 8 8 8 8 8 8 7 7 6 6 5 5 5 5 6 6 5 1 5 8 7 5 5 4 4 4
4 3 2 1 2 1 1 2 1 2 3 5 5 6 6 7 8 9 9 9 10 9 9 9 8 8 8 7 7 7 7 6 6 5 2 6 9 7 6 5 4 4 4
4 2 1 1 1 1 2 1 1 3 4 5 5 6 6 4 4 5 7 8 10 10 10 10 10 9 9 9 10 10 7 4 6 3 3 9 9 7 6 5 4 4 4
4 4 3 2 1 1 2 1 1 2 2 3 2 3 2 2 2 4 3 6 8 10 11 11 11 10 8 6 10 11 5 7 6 3 5 12 10 8 6 6 5 5 4
5 5 5 4 4 3 1 1 1 1 2 3 3 3 3 2 2 2 1 2 4 7 6 8 8 6 6 6 5 7 8 7 4 3 7 12 11 9 7 7 6 5 5
6 5 6 7 6 5 4 2 2 2 2 2 2 3 3 2 3 2 2 3 2 3 3 4 4 6 7 7 6 7 8 5 3 4 7 13 11 10 9 8 7 7 6
5 5 6 7 7 6 4 3 4 2 2 2 2 3 4 3 3 3 3 3 3 3 3 3 4 5 5 5 5 5 4 4 4 5 6 13 13 11 10 9 9 8 7
7 6 6 6 6 6 5 5 4 3 3 2 2 3 3 2 3 3 3 3 3 3 4 4 5 4 3 3 4 4 4 3 3 5 7 9 12 12 11 11 10 10 9
7 7 6 6 6 6 6 6 5 4 3 2 2 3 3 3 3 3 2 3 4 4 4 3 4 3 3 4 4 4 4 4 3 4 7 7 7 11 12 12 11 11 10
6 6 5 7 7 6 5 5 4 4 4 3 3 3 4 3 3 2 2 3 3 2 2 3 2 2 3 3 3 3 4 3 4 3 5 7 7 8 10 13 12 12 12
5 5 6 5 5 5 5 5 5 4 4 3 3 3 4 4 4 3 2 3 3 2 2 4 3 3 3 3 3 4 4 3 4 5 4 6 7 9 8 11 13 13 12
4 6 6 5 5 5 4 5 4 4 4 3 3 3 4 4 4 3 3 3 2 2 3 3 3 3 2 3 4 4 3 4 3 4 4 4 5 8 9 10 9 9 13
5 6 6 6 5 4 3 4 4 4 4 3 3 4 4 4 4 3 3 3 2 2 3 4 3 3 3 2 1 2 3 4 4 3 4 3 4 5 7 10 9 7 7
5 5 6 6 5 5 3 3 4 3 3 3 3 4 5 5 4 4 3 2 2 2 3 4 3 2 3 3 3 2 2 2 3 5 3 4 4 4 6 10 9 10 9
4 5 5 5 6 6 6 3 4 4 3 3 4 3 4 4 4 3 4 3 2 2 2 3 4 4 3 3 4 3 3 4 2 3 4 4 4 3 3 4 7 9 11
5 5 6 6 6 6 6 5 6 5 4 5 4 3 4 4 4 3 3 3 3 2 2 3 3 3 3 3 3 4 3 2 2 2 2 3 4 4 4 3 3 5 7
5 4 4 4 5 5 5 5 4 4 4 4 5 5 4 4 3 3 3 3 3 3 3 3 2 3 3 4 3 3 3 2 2 2 2 2 2 3 3 3 4 4 5
3 3 3 3 3 4 4 5 4 5 5 6 6 5 4 3 3 4 4 3 3 3 3 3 3 3 3 4 4 3 3 3 3 3 3 3 3 3 2 2 2 3 3
Wind_Direction
111 116 125 120 114 105 97 94 97 101 104 104 105 111 99 78 61 48 40 36 33 36 36 35 33 32 36 37 38 42 42 39 38 45 65 74 72 64 53 44 55 76 76
110 116 121 119 116 110 102 96 97 97 99 100 102 110 104 82 59 38 23 18 17 27 28 26 25 27 34 35 33 33 34 25 5 357 54 100 90 76 63 57 65 76 75
103 116 118 112 112 112 110 108 104 100 105 115 131 186 218 262 295 312 327 337 347 2 17 16 16 21 28 29 28 28 20 353 330 315 288 197 109 86 74 68 74 78 76
94 104 105 104 101 103 110 124 135 162 209 246 260 257 256 262 265 267 276 288 300 306 326 350 1 8 13 20 20 17 3 327 314 312 305 123 108 90 79 75 79 82 80
77 87 93 96 91 89 95 137 227 245 255 259 262 261 262 263 266 264 265 266 273 276 275 274 309 330 342 359 5 358 334 313 311 304 348 90 91 93 84 80 78 87 89
75 81 88 87 83 73 59 39 323 283 273 269 264 264 266 266 263 263 265 265 266 267 261 252 257 273 286 302 326 327 312 310 308 299 45 98 101 95 88 82 81 88 93
70 81 88 90 88 78 64 49 27 335 294 277 272 267 267 268 265 263 266 267 264 259 255 249 249 253 257 262 280 297 299 306 289 284 99 104 106 100 93 86 84 90 91
63 67 85 97 103 100 86 59 31 357 331 308 288 278 272 268 265 264 263 262 262 256 250 246 244 246 246 245 256 273 287 296 302 309 126 114 118 111 102 92 87 88 97
71 62 46 48 105 128 115 87 22 335 309 296 290 283 274 268 264 259 257 254 253 251 244 241 239 240 238 237 244 256 270 284 292 284 149 122 127 124 115 104 94 91 101
85 82 67 44 25 26 177 183 243 274 277 277 272 271 267 263 257 254 252 247 244 243 242 240 236 235 235 235 238 243 253 274 264 266 128 133 133 131 128 122 111 105 105
58 59 66 46 56 291 263 258 249 257 253 262 265 260 259 255 256 248 250 247 240 239 239 239 237 234 235 235 234 234 237 242 248 224 132 137 141 142 142 139 133 127 121
24 23 11 350 321 292 304 307 236 265 246 235 238 246 246 254 260 266 273 252 241 239 238 239 238 235 232 236 227 223 227 231 243 201 148 148 147 150 155 155 148 144 138
18 12 354 346 337 326 291 275 249 248 244 240 230 226 226 252 249 253 245 250 244 243 239 234 229 226 226 230 215 199 219 225 216 174 151 152 152 158 166 167 161 158 154
23 2 360 358 344 342 342 338 277 254 242 242 229 230 213 217 236 237 229 217 221 228 231 234 222 224 231 241 229 215 219 216 188 139 154 157 160 167 173 174 170 166 162
17 7 17 355 349 338 328 305 306 291 284 278 249 240 232 215 217 223 231 219 217 220 221 229 236 241 243 258 263 254 239 218 186 157 154 166 167 174 180 181 179 176 173
8 6 18 350 344 336 335 329 317 312 304 298 288 275 265 242 228 222 225 227 228 220 218 218 227 236 234 247 265 272 276 268 217 159 157 170 174 178 184 186 185 183 181
4 360 5 340 356 348 342 332 320 313 317 318 309 298 291 277 261 251 237 236 232 226 221 219 224 233 236 231 249 265 273 268 255 186 164 167 176 186 187 188 187 186 187
1 355 2 356 354 346 342 323 315 322 339 329 320 313 306 300 290 274 251 248 241 233 229 216 208 218 236 238 240 245 253 261 269 244 183 175 174 181 191 192 187 186 188
358 358 12 4 351 347 342 327 327 332 334 324 329 334 323 321 306 290 264 255 254 235 237 242 216 204 218 228 239 241 243 241 250 257 234 200 181 172 176 191 189 186 188
11 11 12 360 1 360 358 339 337 340 336 331 333 333 331 314 310 309 284 260 244 235 234 237 242 216 212 213 236 246 245 247 237 246 257 234 196 177 174 178 182 190 190
25 15 3 7 3 12 6 341 332 331 326 324 330 337 327 317 315 306 299 297 269 241 240 234 232 225 222 207 216 256 261 257 257 243 251 252 223 188 171 171 180 179 187
30 18 3 9 5 13 2 345 325 324 312 316 331 337 336 328 320 312 311 305 290 266 255 242 229 214 223 198 181 182 232 257 264 247 241 251 245 202 179 180 186 177 177
35 21 4 11 8 12 2 1 342 333 329 341 340 336 326 320 317 317 317 308 295 269 254 251 237 219 220 215 197 183 185 206 220 249 233 240 253 239 196 179 194 181 175
34 26 7 13 11 12 0 1 346 345 344 334 330 322 324 328 330 338 319 309 303 294 274 262 249 228 218 222 225 225 216 172 173 232 262 236 243 243 224 191 209 199 178
33 26 8 9 11 7 351 342 338 352 339 326 328 333 338 335 327 329 322 319 305 297 286 278 280 250 227 220 216 215 220 218 204 184 227 243 254 250 233 198 200 208 178
38 22 356 3 4 353 342 341 353 356 340 334 341 342 337 333 329 341 338 331 318 309 305 294 280 264 248 236 228 217 202 197 198 191 207 217 227 255 269 251 213 208 181